SPTZI EPNT-EPKK

Flight info

Callsign SPTZI
Flight time 0h 37m
Altitude 3000
Route EPNTD EPKKS EPKKK
Aircraft C172/L-BGRSY/C

Departure

Time 2026-05-04 18:29
Airport Nowy Targ Airfield (EPNT)

Arrival

Time 2026-05-04 19:06
Airport Kraków John Paul II International Airport (EPKK)
Time Latitude Longitude Altitude Speed Heading
2026-05-04 18:19 49.46682 20.04899 2064 ft 0 kts 15°
2026-05-04 18:23 49.46682 20.04900 2065 ft 2 kts 20°
2026-05-04 18:23 49.46635 20.04948 2061 ft 13 kts 177°
2026-05-04 18:23 49.46546 20.04905 2054 ft 10 kts 205°
2026-05-04 18:23 49.46461 20.04868 2071 ft 11 kts 192°
2026-05-04 18:24 49.46414 20.04871 2075 ft 9 kts 160°
2026-05-04 18:24 49.46349 20.04992 2078 ft 18 kts 123°
2026-05-04 18:24 49.46261 20.05194 2084 ft 23 kts 124°
2026-05-04 18:24 49.46200 20.05362 2084 ft 13 kts 111°
2026-05-04 18:25 49.46182 20.05374 2085 ft 2 kts 308°
2026-05-04 18:25 49.46183 20.05372 2085 ft 0 kts 308°
2026-05-04 18:28 49.46206 20.05324 2084 ft 27 kts 307°
2026-05-04 18:28 49.46442 20.04846 2095 ft 79 kts 305°
2026-05-04 18:28 49.46784 20.04153 2313 ft 84 kts 304°
2026-05-04 18:28 49.47143 20.03372 2421 ft 94 kts 303°
2026-05-04 18:29 49.47618 20.02765 2625 ft 92 kts 348°
2026-05-04 18:29 49.48276 20.02942 2661 ft 104 kts
2026-05-04 18:29 49.48976 20.02798 2801 ft 102 kts 332°
2026-05-04 18:29 49.49554 20.02148 2970 ft 100 kts 315°
2026-05-04 18:30 49.50535 20.00726 3459 ft 94 kts 310°
2026-05-04 18:30 49.51046 20.00065 3637 ft 100 kts 311°
2026-05-04 18:30 49.51564 19.99345 3837 ft 99 kts 308°
2026-05-04 18:31 49.52036 19.98529 3948 ft 110 kts 300°
2026-05-04 18:31 49.52653 19.97742 3988 ft 128 kts 340°
2026-05-04 18:31 49.53542 19.97505 4007 ft 130 kts 351°
2026-05-04 18:31 49.54447 19.97382 4006 ft 131 kts 350°
2026-05-04 18:32 49.55345 19.97246 3987 ft 127 kts 348°
2026-05-04 18:32 49.56214 19.97081 4013 ft 125 kts 346°
2026-05-04 18:32 49.57062 19.96819 4014 ft 124 kts 340°
2026-05-04 18:32 49.57896 19.96487 3997 ft 123 kts 339°
2026-05-04 18:33 49.58709 19.96185 4119 ft 109 kts 340°
2026-05-04 18:33 49.59374 19.95956 4425 ft 98 kts 338°
2026-05-04 18:33 49.59821 19.95790 4550 ft 100 kts 337°
2026-05-04 18:33 49.60732 19.95406 4812 ft 105 kts 336°
2026-05-04 18:34 49.61203 19.95205 4952 ft 105 kts 335°
2026-05-04 18:34 49.61921 19.94797 5006 ft 114 kts 329°
2026-05-04 18:34 49.62645 19.94271 5001 ft 116 kts 329°
2026-05-04 18:34 49.63475 19.94121 5013 ft 123 kts 353°
2026-05-04 18:35 49.64341 19.94043 5018 ft 126 kts 351°
2026-05-04 18:35 49.65218 19.93901 5021 ft 128 kts 348°
2026-05-04 18:35 49.66094 19.93639 5010 ft 128 kts 341°
2026-05-04 18:35 49.66941 19.93296 4991 ft 126 kts 340°
2026-05-04 18:36 49.67785 19.92982 4993 ft 126 kts 342°
2026-05-04 18:36 49.68638 19.92698 4994 ft 125 kts 341°
2026-05-04 18:36 49.69489 19.92407 4988 ft 125 kts 340°
2026-05-04 18:36 49.70334 19.92097 5006 ft 126 kts 340°
2026-05-04 18:37 49.71194 19.91786 5012 ft 128 kts 341°
2026-05-04 18:37 49.72058 19.91495 4974 ft 125 kts 341°
2026-05-04 18:37 49.72893 19.91199 4982 ft 122 kts 340°
2026-05-04 18:37 49.73720 19.90896 4984 ft 122 kts 340°
2026-05-04 18:38 49.74545 19.90603 4983 ft 121 kts 340°
2026-05-04 18:38 49.75362 19.90321 4981 ft 119 kts 341°
2026-05-04 18:38 49.76162 19.90032 4995 ft 118 kts 341°
2026-05-04 18:38 49.76971 19.89747 5004 ft 120 kts 342°
2026-05-04 18:39 49.77795 19.89462 5000 ft 122 kts 341°
2026-05-04 18:39 49.78631 19.89167 4999 ft 124 kts 341°
2026-05-04 18:39 49.79474 19.88862 4995 ft 125 kts 341°
2026-05-04 18:39 49.80328 19.88556 4996 ft 127 kts 341°
2026-05-04 18:40 49.81178 19.88260 4975 ft 126 kts 341°
2026-05-04 18:40 49.82024 19.87962 4965 ft 123 kts 340°
2026-05-04 18:40 49.82849 19.87659 4964 ft 121 kts 341°
2026-05-04 18:40 49.83663 19.87367 4966 ft 119 kts 341°
2026-05-04 18:41 49.84474 19.87088 4974 ft 120 kts 341°
2026-05-04 18:41 49.85283 19.86800 4971 ft 119 kts 341°
2026-05-04 18:41 49.86087 19.86512 4975 ft 118 kts 341°
2026-05-04 18:41 49.86891 19.86223 4975 ft 119 kts 341°
2026-05-04 18:42 49.87700 19.85937 4970 ft 119 kts 341°
2026-05-04 18:42 49.88506 19.85652 4970 ft 118 kts 340°
2026-05-04 18:42 49.89312 19.85362 4899 ft 122 kts 341°
2026-05-04 18:42 49.90187 19.85047 4617 ft 130 kts 341°
2026-05-04 18:43 49.91062 19.84745 4360 ft 128 kts 341°
2026-05-04 18:43 49.91929 19.84437 4110 ft 128 kts 340°
2026-05-04 18:43 49.92796 19.84119 3860 ft 128 kts 340°
2026-05-04 18:43 49.93666 19.83806 3617 ft 129 kts 341°
2026-05-04 18:44 49.94544 19.83492 3380 ft 132 kts 341°
2026-05-04 18:44 49.95144 19.83277 3215 ft 135 kts 341°
2026-05-04 18:44 49.96369 19.82847 2871 ft 135 kts 341°
2026-05-04 18:44 49.97275 19.82521 2757 ft 130 kts 341°
2026-05-04 18:45 49.98147 19.82211 2761 ft 127 kts 340°
2026-05-04 18:45 49.99004 19.81902 2738 ft 128 kts 340°
2026-05-04 18:45 49.99890 19.81575 2619 ft 134 kts 340°
2026-05-04 18:45 50.00808 19.81248 2507 ft 135 kts 341°
2026-05-04 18:46 50.01739 19.81078 2385 ft 139 kts
2026-05-04 18:46 50.02505 19.81965 2252 ft 142 kts 61°
2026-05-04 18:46 50.02890 19.83363 2118 ft 140 kts 74°
2026-05-04 18:46 50.02829 19.84768 2044 ft 128 kts 128°
2026-05-04 18:47 50.02141 19.85341 2004 ft 109 kts 192°
2026-05-04 18:47 50.01634 19.84624 1991 ft 102 kts 247°
2026-05-04 18:47 50.01418 19.83578 1969 ft 101 kts 254°
2026-05-04 18:47 50.01251 19.82535 1964 ft 99 kts 256°
2026-05-04 18:48 50.01100 19.81492 1969 ft 98 kts 257°
2026-05-04 18:48 50.00958 19.80451 1965 ft 98 kts 257°
2026-05-04 18:48 50.00824 19.79435 1957 ft 97 kts 257°
2026-05-04 18:48 50.00692 19.78397 1960 ft 97 kts 258°
2026-05-04 18:49 50.00559 19.77385 1959 ft 97 kts 258°
2026-05-04 18:49 50.00760 19.76427 1976 ft 106 kts 320°
2026-05-04 18:49 50.01504 19.76417 1981 ft 118 kts 29°
2026-05-04 18:49 50.01966 19.77459 1964 ft 119 kts 70°
2026-05-04 18:50 50.02247 19.78675 1961 ft 120 kts 75°
2026-05-04 18:50 50.02492 19.79912 1961 ft 120 kts 76°
2026-05-04 18:50 50.02725 19.81161 1965 ft 121 kts 77°
2026-05-04 18:50 50.02722 19.82400 1971 ft 113 kts 127°
2026-05-04 18:51 50.02136 19.83100 1972 ft 106 kts 161°
2026-05-04 18:51 50.01456 19.83395 1964 ft 98 kts 200°
2026-05-04 18:51 50.01048 19.82648 1964 ft 95 kts 249°
2026-05-04 18:51 50.00848 19.81664 1964 ft 96 kts 254°
2026-05-04 18:52 50.00685 19.80651 1972 ft 97 kts 256°
2026-05-04 18:52 50.00540 19.79619 1977 ft 99 kts 257°
2026-05-04 18:52 50.00402 19.78574 1957 ft 99 kts 257°
2026-05-04 18:52 50.00261 19.77538 1955 ft 98 kts 257°
2026-05-04 18:53 50.00123 19.76498 1968 ft 98 kts 257°
2026-05-04 18:53 50.00209 19.75478 1968 ft 105 kts 307°
2026-05-04 18:53 50.00923 19.75239 1967 ft 116 kts 17°
2026-05-04 18:53 50.01451 19.76156 1975 ft 118 kts 69°
2026-05-04 18:54 50.01731 19.77367 1963 ft 120 kts 76°
2026-05-04 18:54 50.01972 19.78604 1962 ft 120 kts 77°
2026-05-04 18:54 50.02196 19.79852 1960 ft 120 kts 78°
2026-05-04 18:54 50.02412 19.81105 1968 ft 120 kts 78°
2026-05-04 18:55 50.02614 19.82366 1969 ft 119 kts 88°
2026-05-04 18:55 50.01674 19.83303 1977 ft 95 kts 232°
2026-05-04 18:55 50.01414 19.82370 1962 ft 95 kts 253°
2026-05-04 18:56 50.01245 19.81369 1963 ft 96 kts 256°
2026-05-04 18:56 50.01101 19.80347 1971 ft 97 kts 257°
2026-05-04 18:56 50.00969 19.79317 1963 ft 97 kts 258°
2026-05-04 18:56 50.00845 19.78285 1959 ft 97 kts 258°
2026-05-04 18:57 50.00719 19.77257 1957 ft 97 kts 258°
2026-05-04 18:57 50.00644 19.76216 1968 ft 100 kts 281°
2026-05-04 18:57 50.01196 19.75566 1980 ft 113 kts 350°
2026-05-04 18:57 50.01979 19.75722 1974 ft 119 kts 30°
2026-05-04 18:58 50.02602 19.76563 1963 ft 119 kts 49°
2026-05-04 18:58 50.03132 19.77557 1961 ft 120 kts 53°
2026-05-04 18:58 50.03634 19.78604 1966 ft 121 kts 54°
2026-05-04 18:58 50.04131 19.79666 1961 ft 121 kts 51°
2026-05-04 18:59 50.04737 19.80575 1967 ft 121 kts 41°
2026-05-04 18:59 50.05376 19.81431 1965 ft 121 kts 37°
2026-05-04 18:59 50.06150 19.81652 1954 ft 113 kts 334°
2026-05-04 18:59 50.06550 19.80767 1958 ft 101 kts 271°
2026-05-04 19:00 50.06520 19.79708 1970 ft 98 kts 262°
2026-05-04 19:00 50.06248 19.78750 1964 ft 97 kts 241°
2026-05-04 19:00 50.05904 19.77840 1974 ft 98 kts 240°
2026-05-04 19:00 50.05553 19.76926 1973 ft 99 kts 240°
2026-05-04 19:01 50.05193 19.76009 1964 ft 99 kts 239°
2026-05-04 19:01 50.04832 19.75094 1963 ft 99 kts 239°
2026-05-04 19:01 50.04392 19.74308 1952 ft 100 kts 204°
2026-05-04 19:01 50.03689 19.74361 1963 ft 103 kts 174°
2026-05-04 19:02 50.03081 19.74935 1953 ft 112 kts 123°
2026-05-04 19:02 50.03049 19.76157 1959 ft 116 kts 85°
2026-05-04 19:02 50.03209 19.77401 1968 ft 118 kts 81°
2026-05-04 19:02 50.03495 19.78613 1974 ft 121 kts 65°
2026-05-04 19:03 50.03902 19.79765 1971 ft 122 kts 58°
2026-05-04 19:03 50.04406 19.80837 1976 ft 126 kts 53°
2026-05-04 19:03 50.04969 19.81919 1982 ft 131 kts 51°
2026-05-04 19:03 50.05561 19.83018 1976 ft 133 kts 51°
2026-05-04 19:04 50.06162 19.84120 1969 ft 134 kts 49°
2026-05-04 19:04 50.06891 19.84745 1950 ft 107 kts 358°
2026-05-04 19:04 50.07570 19.84760 1784 ft 97 kts 354°
2026-05-04 19:04 50.08107 19.84426 1689 ft 76 kts 301°
2026-05-04 19:05 50.08325 19.83744 1469 ft 69 kts 286°
2026-05-04 19:05 50.08374 19.83013 1268 ft 65 kts 265°
2026-05-04 19:05 50.08302 19.82372 1151 ft 59 kts 257°
2026-05-04 19:05 50.08221 19.81761 1068 ft 57 kts 257°
2026-05-04 19:06 50.08145 19.81147 991 ft 59 kts 258°
2026-05-04 19:06 50.08058 19.80528 912 ft 57 kts 259°
2026-05-04 19:06 50.07979 19.79953 822 ft 53 kts 256°
2026-05-04 19:06 50.07909 19.79459 784 ft 33 kts 258°
2026-05-04 19:07 50.07876 19.79208 784 ft 19 kts 257°
2026-05-04 19:07 50.07809 19.79076 786 ft 15 kts 193°
2026-05-04 19:07 50.07751 19.79089 786 ft 0 kts 169°
2026-05-04 19:08 50.07748 19.79090 786 ft 2 kts 168°
2026-05-04 19:08 50.07698 19.79108 786 ft 12 kts 167°
2026-05-04 19:08 50.07616 19.79164 785 ft 10 kts 103°
2026-05-04 19:09 50.07630 19.79273 785 ft 13 kts 78°
2026-05-04 19:09 50.07650 19.79419 785 ft 12 kts 79°
2026-05-04 19:09 50.07667 19.79539 785 ft 12 kts 77°
2026-05-04 19:09 50.07687 19.79679 785 ft 12 kts 77°
2026-05-04 19:10 50.07704 19.79810 785 ft 12 kts 78°
2026-05-04 19:10 50.07659 19.79884 785 ft 10 kts 168°
2026-05-04 19:10 50.07608 19.79952 785 ft 11 kts 73°
2026-05-04 19:10 50.07623 19.80054 785 ft 8 kts 78°
2026-05-04 19:11 50.07633 19.80129 785 ft 6 kts 77°
2026-05-04 19:11 50.07640 19.80179 785 ft 4 kts 70°
2026-05-04 19:11 50.07661 19.80179 785 ft 4 kts 313°
2026-05-04 19:11 50.07683 19.80168 785 ft 4 kts 347°
2026-05-04 19:12 50.07705 19.80161 785 ft 0 kts 348°